Location: Allaines
(49.9632°N, 2.9458°E)
Time: 21:52:53
(UTC+00:00)

X-37B - Pass Details

Date: 01 July 2021
Orbit: 383 x 392 km, 45.0° (Epoch: 01 July)

Event Time Altitude Azimuth Distance (km) Brightness Sun altitude
Rises 22:21:00 0° 265° (W) 2,258 4.7 -14.2°
Reaches altitude 10° 22:24:04 10° 233° (SW) 1,401 3.2 -14.4°
Enters shadow 22:24:36 11° 223° (SW) 1,328 3.0 -14.5°
